| time (UTC) | temp C | wind direction | speed KPH | gust KPH | rain 1hr cm | rain 24hr cm | rain mn cm | humidity % | barometer mb |
| 20260506134530 | -5 | 72 | 0.0 | 0.0 | 0.00 | 0.08 | 0.00 | 90 | 1022.7 |
| 20260506133013 | -5 | 71 | 0.0 | 0.0 | 0.00 | 0.08 | 0.00 | 91 | 1022.2 |
| 20260506131513 | -5 | 72 | 0.0 | 0.0 | 0.00 | 0.08 | 0.00 | 91 | 1022.1 |
| 20260506130009 | -5 | 72 | 0.0 | 0.0 | 0.00 | 0.08 | 0.00 | 91 | 1021.7 |
| 20260506124512 | -5 | 72 | 0.0 | 0.0 | 0.00 | 0.08 | 0.00 | 91 | 1021.4 |
| 20260506123006 | -5 | 72 | 0.0 | 0.0 | 0.00 | 0.08 | 0.00 | 91 | 1021.1 |
| 20260506121508 | -5 | 72 | 0.0 | 0.0 | 0.00 | 0.08 | 0.00 | 91 | 1020.9 |
| 20260506120008 | -5 | 71 | 0.0 | 0.0 | 0.00 | 0.08 | 0.00 | 91 | 1020.9 |
| 20260506114600 | -5 | 71 | 0.0 | 0.0 | 0.00 | 0.08 | 0.00 | 91 | 1020.6 |
| 20260506113059 | -5 | 72 | 0.0 | 0.0 | 0.00 | 0.08 | 0.00 | 91 | 1020.4 |
| 20260506111612 | -5 | 72 | 0.0 | 0.0 | 0.00 | 0.08 | 0.00 | 91 | 1020.2 |
| 20260506110055 | -4 | 72 | 0.0 | 0.0 | 0.00 | 0.08 | 0.00 | 91 | 1020.0 |
| 20260506104554 | -4 | 72 | 0.0 | 0.0 | 0.00 | 0.08 | 0.00 | 91 | 1019.9 |
| 20260506103055 | -4 | 72 | 0.0 | 0.0 | 0.00 | 0.08 | 0.00 | 91 | 1019.7 |
| 20260506101553 | -4 | 72 | 0.0 | 0.0 | 0.00 | 0.08 | 0.00 | 91 | 1019.6 |
| 20260506100151 | -4 | 72 | 0.0 | 0.0 | 0.00 | 0.08 | 0.00 | 91 | 1019.6 |
| 20260506094550 | -4 | 72 | 0.0 | 0.0 | 0.00 | 0.10 | 0.00 | 91 | 1019.4 |
| 20260506093054 | -4 | 72 | 0.0 | 0.0 | 0.00 | 0.10 | 0.00 | 91 | 1019.4 |
| 20260506091549 | -4 | 72 | 0.0 | 0.0 | 0.00 | 0.10 | 0.00 | 91 | 1019.4 |
| 20260506090048 | -4 | 72 | 0.0 | 0.0 | 0.00 | 0.13 | 0.00 | 91 | 1019.4 |
| 20260506084547 | -4 | 72 | 0.0 | 0.0 | 0.00 | 0.13 | 0.00 | 91 | 1019.6 |
| 20260506083107 | -4 | 72 | 0.0 | 0.0 | 0.00 | 0.13 | 0.00 | 91 | 1019.4 |
| 20260506081549 | -4 | 72 | 0.0 | 0.0 | 0.00 | 0.13 | 0.00 | 92 | 1019.4 |
| 20260506073043 | -3 | 72 | 0.0 | 0.0 | 0.00 | 0.20 | 0.00 | 92 | 1019.3 |
| 20260506071543 | -3 | 72 | 0.0 | 3.2 | 0.00 | 0.20 | 0.00 | 92 | 1019.3 |
| 20260506061538 | -3 | 72 | 0.0 | 0.0 | 0.00 | 0.20 | 0.00 | 92 | 1018.7 |
| 20260506044523 | -3 | 72 | 0.0 | 0.0 | 0.00 | 0.23 | 0.20 | 91 | 1017.7 |
| 20260506043022 | -3 | 71 | 0.0 | 0.0 | 0.00 | 0.23 | 0.20 | 91 | 1017.8 |
| 20260506041521 | -3 | 72 | 0.0 | 0.0 | 0.00 | 0.23 | 0.20 | 91 | 1017.6 |
| 20260506040025 | -3 | 72 | 0.0 | 0.0 | 0.00 | 0.23 | 0.20 | 91 | 1017.2 |
| 20260506034517 | -3 | 71 | 0.0 | 0.0 | 0.00 | 0.23 | 0.20 | 91 | 1017.1 |
| 20260506033016 | -3 | 71 | 0.0 | 0.0 | 0.00 | 0.23 | 0.20 | 91 | 1016.9 |
| 20260506031521 | -3 | 71 | 0.0 | 0.0 | 0.00 | 0.23 | 0.20 | 91 | 1016.8 |
| 20260506030014 | -3 | 71 | 0.0 | 0.0 | 0.00 | 0.23 | 0.20 | 91 | 1016.6 |
| 20260506024526 | -3 | 71 | 0.0 | 0.0 | 0.00 | 0.23 | 0.20 | 90 | 1016.3 |
| 20260506023111 | -3 | 71 | 0.0 | 0.0 | 0.00 | 0.23 | 0.20 | 90 | 1015.7 |
| 20260506021510 | -3 | 72 | 0.0 | 0.0 | 0.00 | 0.23 | 0.20 | 90 | 1015.3 |
| 20260506020005 | -3 | 72 | 0.0 | 0.0 | 0.00 | 0.33 | 0.20 | 90 | 1015.0 |
| 20260506014508 | -3 | 72 | 0.0 | 4.8 | 0.00 | 0.33 | 0.20 | 89 | 1014.9 |
| 20260506013001 | -3 | 72 | 0.0 | 0.0 | 0.00 | 0.33 | 0.20 | 90 | 1014.4 |
| 20260506011626 | -3 | 72 | 0.0 | 0.0 | 0.00 | 0.33 | 0.20 | 90 | 1014.1 |
| 20260506010058 | -3 | 72 | 0.0 | 3.2 | 0.00 | 0.33 | 0.20 | 90 | 1014.0 |
| 20260506004605 | -3 | 72 | 0.0 | 8.0 | 0.00 | 0.69 | 0.20 | 89 | 1013.9 |
| 20260506003055 | -2 | 72 | 0.0 | 3.2 | 0.00 | 0.69 | 0.20 | 89 | 1013.9 |
| 20260506001653 | -2 | 72 | 0.0 | 3.2 | 0.00 | 0.69 | 0.20 | 89 | 1013.5 |
| 20260506000114 | -2 | 72 | 0.0 | 6.4 | 0.00 | 0.84 | 0.20 | 89 | 1012.9 |
| 20260505234553 | -2 | 72 | 0.0 | 0.0 | 0.00 | 0.84 | 0.20 | 89 | 1012.8 |
| 20260505233055 | -2 | 72 | 0.0 | 0.0 | 0.00 | 0.84 | 0.20 | 89 | 1012.7 |
| 20260505231554 | -2 | 72 | 0.0 | 0.0 | 0.00 | 0.84 | 0.20 | 90 | 1012.6 |
| 20260505224545 | -2 | 72 | 0.0 | 3.2 | 0.00 | 0.84 | 0.20 | 89 | 1012.3 |
| 20260505223043 | -2 | 71 | 0.0 | 3.2 | 0.03 | 0.84 | 0.20 | 89 | 1012.2 |
| 20260505221546 | -2 | 71 | 0.0 | 4.8 | 0.03 | 0.84 | 0.20 | 88 | 1012.1 |
| 20260505220040 | -2 | 71 | 0.0 | 4.8 | 0.03 | 0.84 | 0.20 | 88 | 1011.4 |
| 20260505214536 | -1 | 71 | 1.6 | 6.4 | 0.03 | 0.84 | 0.20 | 88 | 1011.2 |
| 20260505213035 | 0 | 71 | 0.0 | 0.0 | 0.00 | 0.81 | 0.18 | 88 | 1010.7 |
| 20260505211537 | 0 | 71 | 0.0 | 3.2 | 0.00 | 0.81 | 0.18 | 89 | 1010.5 |
| 20260505210033 | 0 | 71 | 0.0 | 0.0 | 0.00 | 0.81 | 0.18 | 90 | 1010.5 |
| 20260505204543 | 0 | 71 | 0.0 | 0.0 | 0.00 | 0.81 | 0.18 | 90 | 1010.8 |
| 20260505203034 | 0 | 71 | 0.0 | 0.0 | 0.00 | 0.81 | 0.18 | 90 | 1010.9 |
| 20260505201532 | -1 | 71 | 0.0 | 0.0 | 0.00 | 0.81 | 0.18 | 90 | 1011.0 |
| 20260505200031 | -1 | 71 | 0.0 | 0.0 | 0.00 | 0.89 | 0.18 | 90 | 1011.1 |
| 20260505194539 | -1 | 71 | 0.0 | 4.8 | 0.00 | 0.89 | 0.18 | 89 | 1011.5 |
| 20260505193030 | -1 | 71 | 0.0 | 0.0 | 0.00 | 0.89 | 0.18 | 89 | 1011.3 |
| 20260505191529 | 0 | 71 | 0.0 | 4.8 | 0.03 | 0.89 | 0.18 | 89 | 1011.3 |
| 20260505190036 | 0 | 71 | 0.0 | 1.6 | 0.03 | 0.89 | 0.18 | 89 | 1011.5 |
| 20260505184533 | 0 | 71 | 0.0 | 4.8 | 0.03 | 0.89 | 0.18 | 89 | 1011.4 |
| 20260505183028 | 0 | 71 | 0.0 | 8.0 | 0.03 | 0.89 | 0.18 | 89 | 1011.3 |
| 20260505181528 | 0 | 71 | 0.0 | 9.7 | 0.00 | 0.86 | 0.15 | 89 | 1011.1 |
| 20260505180037 | 0 | 71 | 0.0 | 6.4 | 0.00 | 0.86 | 0.15 | 90 | 1011.0 |
| 20260505174525 | 0 | 71 | 0.0 | 0.0 | 0.00 | 0.86 | 0.15 | 89 | 1011.3 |
| 20260505173027 | 0 | 71 | 0.0 | 4.8 | 0.03 | 0.86 | 0.15 | 90 | 1011.3 |
| 20260505171524 | 0 | 71 | 1.6 | 4.8 | 0.03 | 0.86 | 0.15 | 90 | 1011.0 |
| 20260505170024 | 0 | 71 | 0.0 | 1.6 | 0.03 | 0.86 | 0.15 | 89 | 1010.9 |
| 20260505164523 | 0 | 71 | 0.0 | 1.6 | 0.03 | 0.86 | 0.15 | 89 | 1011.8 |
| 20260505163020 | 0 | 71 | 0.0 | 4.8 | 0.00 | 0.84 | 0.13 | 90 | 1010.9 |
| 20260505161518 | 0 | 71 | 0.0 | 6.4 | 0.00 | 0.84 | 0.13 | 90 | 1010.9 |
| 20260505153017 | 0 | 78 | 1.6 | 4.8 | 0.00 | 0.84 | 0.13 | 90 | 1011.0 |
| 20260505151516 | 0 | 79 | 0.0 | 0.0 | 0.00 | 0.84 | 0.13 | 91 | 1010.8 |